M I D A S
Marine Information and Data Acquisition System
Tripno 2246 of the Zeeleeuw from 2011-11-23 07:52:18 to 2011-11-23 15:39:22
Back to CruiseResearch ActivitiesStationsMapUnderway DataData graphs

EquipmentUnitsComments
TimeDGPSUTC
LatitudeDGPSDM.mWGS84
LongitudeDGPSDM.mWGS84
SpeedMeteo Stationm/sRelative wind speed
DirectionMeteo StationdegRelative wind direction
TemperatureMeteo Stationdeg CelciusAir temperature
PressureMeteo StationPaAtmospheric pressure
HumidityMeteo Station%Relative humidity
Missing or incorrect values are displayed as -999
Metereological data collected by the RV Zeeleeuw from 2011-11-23 07:42:10 to 2011-11-23 15:48:23
Time Latitude Longitude Speed Direction Temperature Pressure Humidity
2011-11-23 07:43 51°13.636 2°56.02 -999 35 10.2 102540 52
2011-11-23 07:44 51°13.636 2°56.02 -999 237 10.2 102540 50
2011-11-23 07:45 51°13.636 2°56.019 -999 35 10.2 102540 51
2011-11-23 07:46 51°13.636 2°56.019 -999 35 10.2 102540 51
2011-11-23 07:47 51°13.636 2°56.019 -999 318 10.2 102540 51
2011-11-23 07:48 51°13.636 2°56.019 -999 323 10.1 102540 51
2011-11-23 07:49 51°13.636 2°56.019 -999 338 10.1 102540 51
2011-11-23 07:50 51°13.636 2°56.019 -999 338 10 102550 51
2011-11-23 07:51 51°13.635 2°56.019 -999 339 10 102550 51
2011-11-23 07:52 51°13.634 2°56.019 -999 344 10 102550 50
2011-11-23 07:53 51°13.641 2°55.984 -999 13 9.9 102540 52
2011-11-23 07:54 51°13.666 2°55.893 -999 20 9.9 102540 52
2011-11-23 07:55 51°13.706 2°55.794 -999 42 9.9 102540 52
2011-11-23 07:56 51°13.763 2°55.7 0.6 44 9.9 102550 52
2011-11-23 07:57 51°13.839 2°55.64 0.4 35 9.9 102550 51
2011-11-23 07:58 51°13.903 2°55.61 -999 35 9.8 102550 52
2011-11-23 07:59 51°13.951 2°55.626 -999 35 9.8 102550 52
2011-11-23 08:00 51°13.97 2°55.635 0.1 248 9.8 102550 51
2011-11-23 08:01 51°13.979 2°55.585 -999 245 9.8 102550 52
2011-11-23 08:02 51°14.043 2°55.509 -999 322 9.9 102550 52
2011-11-23 08:03 51°14.166 2°55.392 -999 328 9.9 102550 53
2011-11-23 08:04 51°14.315 2°55.256 3.2 331 10 102560 52
2011-11-23 08:05 51°14.47 2°55.1 4.3 330 10 102550 52
2011-11-23 08:06 51°14.62 2°54.943 3.7 336 10 102550 51
2011-11-23 08:07 51°14.786 2°54.822 4.4 342 10 102550 51
2011-11-23 08:08 51°14.973 2°54.803 6.3 339 10 102550 51
2011-11-23 08:09 51°15.148 2°54.9 6.3 338 10 102550 53
2011-11-23 08:10 51°15.287 2°55.089 4.8 338 10.1 102540 52
2011-11-23 08:11 51°15.379 2°55.127 0.3 350 10 102550 52
2011-11-23 08:12 51°15.384 2°55.023 1.8 38 10 102560 52
2011-11-23 08:13 51°15.307 2°55.007 2.8 318 10.1 102560 52
2011-11-23 08:14 51°15.236 2°55.039 3.2 320 10.1 102560 52
2011-11-23 08:15 51°15.181 2°55.055 2.7 35 10.1 102560 52
2011-11-23 08:16 51°15.143 2°55.02 0.7 33 10.1 102560 51
2011-11-23 08:17 51°15.103 2°54.957 -999 35 10.1 102560 52
2011-11-23 08:18 51°15.048 2°54.935 2.8 326 10.1 102560 53
2011-11-23 08:19 51°15.019 2°55.028 2.6 345 10.2 102560 52
2011-11-23 08:20 51°15.07 2°55.098 0.1 1 10.2 102570 52
2011-11-23 08:21 51°15.178 2°55.062 2.5 343 10.3 102570 51
2011-11-23 08:22 51°15.323 2°55.093 -999 343 10.3 102570 52
2011-11-23 08:23 51°15.465 2°55.217 -999 343 10.3 102570 52
2011-11-23 08:24 51°15.55 2°55.385 -999 347 10.2 102570 51
2011-11-23 08:25 51°15.601 2°55.507 -999 354 10.1 102570 52
2011-11-23 08:26 51°15.661 2°55.623 -999 350 10.1 102570 52
2011-11-23 08:27 51°15.728 2°55.759 -999 349 10 102570 52
2011-11-23 08:28 51°15.781 2°55.9 -999 348 10 102570 52
2011-11-23 08:29 51°15.835 2°56.042 -999 347 10 102570 52
2011-11-23 08:30 51°15.886 2°56.183 -999 347 10 102570 52
2011-11-23 08:31 51°15.941 2°56.323 -999 348 10 102570 52
2011-11-23 08:32 51°15.997 2°56.462 -999 348 9.9 102570 51
2011-11-23 08:33 51°16.053 2°56.605 -999 345 9.9 102570 52
2011-11-23 08:34 51°16.106 2°56.745 -999 345 9.9 102570 52
2011-11-23 08:35 51°16.159 2°56.893 -999 344 9.9 102570 52
2011-11-23 08:36 51°16.211 2°57.043 -999 344 9.9 102570 52
2011-11-23 08:37 51°16.268 2°57.192 -999 342 10 102570 52
2011-11-23 08:38 51°16.325 2°57.338 -999 341 10 102570 52
2011-11-23 08:39 51°16.379 2°57.482 -999 343 10.1 102570 52
2011-11-23 08:40 51°16.432 2°57.627 -999 340 10.1 102570 51
2011-11-23 08:41 51°16.481 2°57.771 -999 342 10.1 102570 52
2011-11-23 08:42 51°16.532 2°57.912 -999 344 10.1 102580 52
2011-11-23 08:43 51°16.581 2°58.034 -999 346 10.2 102570 52
2011-11-23 08:44 51°16.626 2°58.158 -999 345 10.2 102570 52
2011-11-23 08:45 51°16.673 2°58.29 -999 344 10.2 102570 52
2011-11-23 08:46 51°16.72 2°58.425 -999 344 10.2 102580 52
2011-11-23 08:47 51°16.767 2°58.554 -999 348 10.3 102580 52
2011-11-23 08:48 51°16.811 2°58.686 -999 348 10.3 102580 51
2011-11-23 08:49 51°16.85 2°58.822 -999 349 10.3 102580 52
2011-11-23 08:50 51°16.89 2°58.958 -999 354 10.2 102580 52
2011-11-23 08:51 51°16.933 2°59.092 -999 354 10.2 102580 52
2011-11-23 08:52 51°16.978 2°59.225 -999 351 10.1 102580 52
2011-11-23 08:53 51°17.022 2°59.36 -999 351 10.1 102580 52
2011-11-23 08:54 51°17.066 2°59.496 -999 349 10 102580 52
2011-11-23 08:55 51°17.108 2°59.636 -999 344 10.1 102580 52
2011-11-23 08:56 51°17.148 2°59.775 -999 346 10.1 102590 51
2011-11-23 08:57 51°17.189 2°59.91 -999 344 10.2 102590 52
2011-11-23 08:58 51°17.233 3°0.043 -999 344 10.3 102580 52
2011-11-23 08:59 51°17.278 3°0.177 -999 344 10.3 102590 52
2011-11-23 09:00 51°17.322 3°0.313 -999 342 10.3 102590 52
2011-11-23 09:01 51°17.367 3°0.449 -999 342 10.4 102590 52
2011-11-23 09:02 51°17.418 3°0.581 -999 340 10.4 102590 52
2011-11-23 09:03 51°17.469 3°0.715 -999 340 10.5 102580 52
2011-11-23 09:04 51°17.518 3°0.847 -999 345 10.4 102580 51
2011-11-23 09:05 51°17.564 3°0.977 -999 348 10.4 102580 51
2011-11-23 09:06 51°17.606 3°1.106 -999 348 10.4 102580 52
2011-11-23 09:07 51°17.65 3°1.233 -999 348 10.3 102590 52
2011-11-23 09:08 51°17.697 3°1.36 -999 344 10.3 102580 52
2011-11-23 09:09 51°17.746 3°1.481 -999 344 10.4 102590 52
2011-11-23 09:10 51°17.8 3°1.601 -999 343 10.4 102590 52
2011-11-23 09:11 51°17.857 3°1.732 -999 342 10.4 102590 52
2011-11-23 09:12 51°17.913 3°1.874 -999 342 10.5 102590 51
2011-11-23 09:13 51°17.97 3°2.019 -999 340 10.5 102590 52
2011-11-23 09:14 51°18.026 3°2.158 -999 339 10.5 102590 52
2011-11-23 09:15 51°18.084 3°2.29 -999 337 10.5 102590 52
2011-11-23 09:16 51°18.14 3°2.421 -999 336 10.6 102590 52
2011-11-23 09:17 51°18.195 3°2.553 -999 336 10.6 102590 52
2011-11-23 09:18 51°18.25 3°2.686 -999 336 10.7 102590 52
2011-11-23 09:19 51°18.303 3°2.819 -999 328 10.7 102590 52
2011-11-23 09:20 51°18.356 3°2.956 -999 328 10.8 102580 51
2011-11-23 09:21 51°18.41 3°3.091 -999 328 10.8 102580 52
2011-11-23 09:22 51°18.466 3°3.224 -999 331 10.9 102590 52
2011-11-23 09:23 51°18.529 3°3.343 -999 331 10.9 102580 52
2011-11-23 09:24 51°18.601 3°3.441 -999 334 11 102590 52
2011-11-23 09:25 51°18.678 3°3.532 -999 330 10.9 102580 52
2011-11-23 09:26 51°18.756 3°3.626 -999 329 10.9 102590 52
2011-11-23 09:27 51°18.834 3°3.722 -999 329 10.9 102590 52
2011-11-23 09:28 51°18.93 3°3.818 1.4 329 10.9 102590 51
2011-11-23 09:29 51°19.073 3°3.868 3.1 326 10.8 102590 52
2011-11-23 09:30 51°19.244 3°3.884 2.8 327 10.8 102590 53
2011-11-23 09:31 51°19.432 3°3.858 4.3 328 10.8 102580 52
2011-11-23 09:32 51°19.622 3°3.816 3.8 327 10.8 102590 52
2011-11-23 09:33 51°19.816 3°3.79 4.3 325 10.8 102580 51
2011-11-23 09:34 51°20.005 3°3.738 4.5 324 10.8 102590 53
2011-11-23 09:35 51°20.193 3°3.683 3.9 323 10.8 102590 52
2011-11-23 09:36 51°20.383 3°3.632 5 328 10.8 102590 52
2011-11-23 09:37 51°20.569 3°3.571 5.4 330 10.7 102580 52
2011-11-23 09:38 51°20.756 3°3.514 6 329 10.7 102590 53
2011-11-23 09:39 51°20.942 3°3.461 5.1 329 10.8 102590 52
2011-11-23 09:40 51°21.137 3°3.476 6.6 329 10.9 102590 52
2011-11-23 09:41 51°21.335 3°3.505 5.6 328 10.9 102590 52
2011-11-23 09:42 51°21.531 3°3.529 6 328 10.9 102590 51
2011-11-23 09:43 51°21.718 3°3.495 5 328 11 102590 52
2011-11-23 09:44 51°21.903 3°3.441 5.7 327 11 102590 51
2011-11-23 09:45 51°22.092 3°3.406 6.1 305 11 102590 52
2011-11-23 09:46 51°22.28 3°3.371 5.7 326 11 102590 52
2011-11-23 09:47 51°22.466 3°3.336 5.8 326 11 102600 51
2011-11-23 09:48 51°22.651 3°3.297 6.3 302 11 102600 52
2011-11-23 09:49 51°22.839 3°3.302 5.8 305 11.1 102610 51
2011-11-23 09:50 51°23.031 3°3.309 5.1 304 11.1 102610 52
2011-11-23 09:51 51°23.217 3°3.29 5.3 304 11.1 102610 51
2011-11-23 09:52 51°23.402 3°3.263 5.7 304 11.1 102610 50
2011-11-23 09:53 51°23.591 3°3.247 5 303 11.1 102610 52
2011-11-23 09:54 51°23.779 3°3.225 5.3 323 11.1 102610 51
2011-11-23 09:55 51°23.969 3°3.215 6.6 304 11.1 102610 52
2011-11-23 09:56 51°24.161 3°3.211 5.5 309 11 102620 51
2011-11-23 09:57 51°24.347 3°3.184 5.6 309 11 102610 51
2011-11-23 09:58 51°24.529 3°3.15 6.7 306 11 102610 51
2011-11-23 09:59 51°24.691 3°3.049 6.2 304 10.9 102610 52
2011-11-23 10:00 51°24.812 3°2.874 5.9 327 10.9 102610 52
2011-11-23 10:01 51°24.853 3°2.631 7.5 327 10.9 102610 52
2011-11-23 10:02 51°24.868 3°2.377 6.8 328 11 102610 51
2011-11-23 10:03 51°24.885 3°2.124 5.9 328 11 102610 51
2011-11-23 10:04 51°24.897 3°1.868 6.9 326 11 102610 51
2011-11-23 10:05 51°24.911 3°1.611 7.1 325 11 102610 52
2011-11-23 10:06 51°24.929 3°1.356 6.3 329 11 102610 53
2011-11-23 10:07 51°24.933 3°1.099 7.5 331 11 102610 53
2011-11-23 10:08 51°24.927 3°0.841 6.5 332 11 102610 51
2011-11-23 10:09 51°24.924 3°0.585 7.3 330 11 102610 51
2011-11-23 10:10 51°24.932 3°0.327 6.5 330 11.1 102610 52
2011-11-23 10:11 51°24.943 3°0.069 6.6 330 11.1 102620 52
2011-11-23 10:12 51°24.943 2°59.811 6.8 330 11.1 102620 52
2011-11-23 10:13 51°24.941 2°59.552 5.9 331 11.2 102620 52
2011-11-23 10:14 51°24.947 2°59.29 6.1 329 11.2 102610 52
2011-11-23 10:15 51°24.955 2°59.029 5.9 331 11.2 102610 51
2011-11-23 10:16 51°24.968 2°58.768 6.9 329 11.2 102610 50
2011-11-23 10:17 51°24.98 2°58.507 7.5 326 11.2 102610 51
2011-11-23 10:18 51°24.983 2°58.298 6 303 11.3 102620 51
2011-11-23 10:19 51°24.993 2°58.167 5.3 326 11.3 102620 51
2011-11-23 10:20 51°25.009 2°58.007 5.6 328 11.2 102620 52
2011-11-23 10:21 51°25.022 2°57.837 6 302 11.2 102620 51
2011-11-23 10:22 51°25.033 2°57.68 6.5 325 11.2 102620 52
2011-11-23 10:23 51°25.048 2°57.528 6 326 11.1 102620 53
2011-11-23 10:24 51°25.06 2°57.375 7.2 327 11.1 102620 51
2011-11-23 10:25 51°25.07 2°57.22 6.2 302 11.1 102620 53
2011-11-23 10:26 51°25.078 2°57.065 6.6 326 11.1 102620 53
2011-11-23 10:27 51°25.096 2°56.91 6.1 305 11 102620 53
2011-11-23 10:28 51°25.111 2°56.754 6.2 327 11.1 102620 53
2011-11-23 10:29 51°25.119 2°56.6 5.9 324 11.1 102620 52
2011-11-23 10:30 51°25.134 2°56.443 5.7 325 11.1 102620 53
2011-11-23 10:31 51°25.153 2°56.285 5.8 303 11.1 102610 52
2011-11-23 10:32 51°25.169 2°56.127 5.3 323 11.2 102610 52
2011-11-23 10:33 51°25.184 2°55.969 5.8 324 11.2 102620 53
2011-11-23 10:34 51°25.203 2°55.81 5.5 303 11.2 102610 53
2011-11-23 10:35 51°25.225 2°55.65 5.6 323 11.2 102620 53
2011-11-23 10:36 51°25.244 2°55.488 5.6 304 11.3 102610 52
2011-11-23 10:37 51°25.259 2°55.325 5.8 302 11.3 102610 53
2011-11-23 10:38 51°25.277 2°55.16 7.1 304 11.3 102610 52
2011-11-23 10:39 51°25.299 2°54.995 6.8 331 11.3 102610 52
2011-11-23 10:40 51°25.313 2°54.83 6.2 335 11.3 102610 51
2011-11-23 10:41 51°25.33 2°54.663 5.8 333 11.3 102610 51
2011-11-23 10:42 51°25.349 2°54.498 6.9 338 11.4 102610 52
2011-11-23 10:43 51°25.367 2°54.331 6 337 11.4 102610 51
2011-11-23 10:44 51°25.386 2°54.165 7.1 338 11.4 102610 52
2011-11-23 10:45 51°25.401 2°53.999 6.1 338 11.4 102610 52
2011-11-23 10:46 51°25.417 2°53.835 7.6 338 11.4 102610 52
2011-11-23 10:47 51°25.438 2°53.672 7.3 339 11.3 102610 51
2011-11-23 10:48 51°25.437 2°53.514 7.2 344 11.3 102600 50
2011-11-23 10:49 51°25.423 2°53.36 7.2 342 11.2 102600 51
2011-11-23 10:50 51°25.413 2°53.205 8 345 11.1 102600 50
2011-11-23 10:51 51°25.407 2°53.053 7.2 342 11.2 102600 51
2011-11-23 10:52 51°25.401 2°52.901 7.1 342 11.1 102590 50
2011-11-23 10:53 51°25.41 2°52.746 8.4 342 11.1 102600 51
2011-11-23 10:54 51°25.42 2°52.59 8.8 343 11.1 102600 51
2011-11-23 10:55 51°25.423 2°52.437 9.3 344 11.1 102590 51
2011-11-23 10:56 51°25.424 2°52.283 8.1 344 11 102590 50
2011-11-23 10:57 51°25.428 2°52.127 8.6 342 11 102600 51
2011-11-23 10:58 51°25.436 2°51.97 8.9 341 11.1 102600 51
2011-11-23 10:59 51°25.443 2°51.813 7.2 341 11 102600 50
2011-11-23 11:00 51°25.445 2°51.659 8 344 11 102600 49
2011-11-23 11:01 51°25.444 2°51.507 8.2 343 11 102610 50
2011-11-23 11:02 51°25.445 2°51.355 7.7 340 11 102610 50
2011-11-23 11:03 51°25.452 2°51.201 7 341 11 102600 49
2011-11-23 11:04 51°25.459 2°51.045 7.9 343 11 102610 49
2011-11-23 11:05 51°25.461 2°50.89 8.3 345 11 102610 49
2011-11-23 11:06 51°25.459 2°50.735 7.5 345 11 102610 49
2011-11-23 11:07 51°25.461 2°50.578 6.9 342 11 102610 49
2011-11-23 11:08 51°25.467 2°50.42 7.4 342 11 102610 49
2011-11-23 11:09 51°25.472 2°50.263 6.7 342 11 102600 49
2011-11-23 11:10 51°25.472 2°50.105 6.4 342 11 102600 48
2011-11-23 11:11 51°25.471 2°49.949 7.2 340 11 102600 49
2011-11-23 11:12 51°25.49 2°49.794 6.7 338 11 102600 48
2011-11-23 11:13 51°25.522 2°49.642 8.5 336 11.1 102600 49
2011-11-23 11:14 51°25.553 2°49.491 8 339 11.1 102600 47
2011-11-23 11:15 51°25.582 2°49.343 8.4 338 11.1 102600 48
2011-11-23 11:16 51°25.605 2°49.194 8.5 340 11.1 102600 47
2011-11-23 11:17 51°25.629 2°49.044 6.9 340 11.1 102600 48
2011-11-23 11:18 51°25.658 2°48.894 8.3 340 11 102600 47
2011-11-23 11:19 51°25.688 2°48.743 6.8 342 11 102590 47
2011-11-23 11:20 51°25.717 2°48.59 6.5 339 11 102590 46
2011-11-23 11:21 51°25.742 2°48.436 6.6 342 11 102590 47
2011-11-23 11:22 51°25.764 2°48.281 6.1 341 11 102590 47
2011-11-23 11:23 51°25.787 2°48.123 6.9 339 11 102590 47
2011-11-23 11:24 51°25.816 2°47.966 6.6 341 11 102590 47
2011-11-23 11:25 51°25.844 2°47.808 6.5 339 11 102590 47
2011-11-23 11:26 51°25.867 2°47.648 6.2 341 11 102590 46
2011-11-23 11:27 51°25.884 2°47.486 6.4 338 11 102580 46
2011-11-23 11:28 51°25.902 2°47.322 6.5 337 11 102580 45
2011-11-23 11:29 51°25.922 2°47.158 6.6 334 11 102580 46
2011-11-23 11:30 51°25.946 2°46.993 6.3 335 11 102580 46
2011-11-23 11:31 51°25.969 2°46.829 6.4 335 11 102580 47
2011-11-23 11:32 51°25.993 2°46.664 6.4 336 11 102580 46
2011-11-23 11:33 51°26.011 2°46.5 6.4 335 11 102580 46
2011-11-23 11:34 51°26.028 2°46.336 6.3 338 11 102580 45
2011-11-23 11:35 51°26.046 2°46.172 7.3 336 11 102590 46
2011-11-23 11:36 51°26.071 2°46.009 7.5 337 11 102590 45
2011-11-23 11:37 51°26.086 2°45.848 7.3 338 11 102590 46
2011-11-23 11:38 51°26.084 2°45.689 6.4 339 11 102590 46
2011-11-23 11:39 51°26.083 2°45.528 6.5 339 11 102590 46
2011-11-23 11:40 51°26.088 2°45.365 7.8 337 11 102590 47
2011-11-23 11:41 51°26.094 2°45.2 7.6 338 11 102600 47
2011-11-23 11:42 51°26.097 2°45.036 5.5 338 11 102600 46
2011-11-23 11:43 51°26.095 2°44.874 7.9 338 11 102600 47
2011-11-23 11:44 51°26.096 2°44.71 6.9 335 11 102600 45
2011-11-23 11:45 51°26.099 2°44.546 6.6 335 11 102610 46
2011-11-23 11:46 51°26.106 2°44.382 8.2 334 10.9 102610 46
2011-11-23 11:47 51°26.111 2°44.218 7.9 335 10.9 102610 46
2011-11-23 11:48 51°26.113 2°44.055 6.5 337 10.9 102610 46
2011-11-23 11:49 51°26.113 2°43.895 6.4 338 10.9 102610 45
2011-11-23 11:50 51°26.117 2°43.735 7.1 336 10.9 102610 46
2011-11-23 11:51 51°26.118 2°43.572 6 335 10.9 102620 45
2011-11-23 11:52 51°26.126 2°43.407 6.1 334 10.9 102610 45
2011-11-23 11:53 51°26.134 2°43.242 7.7 333 10.9 102610 46
2011-11-23 11:54 51°26.14 2°43.077 5.7 336 10.9 102620 45
2011-11-23 11:55 51°26.141 2°42.914 5.8 337 10.9 102620 45
2011-11-23 11:56 51°26.145 2°42.749 6 333 10.9 102620 45
2011-11-23 11:57 51°26.15 2°42.584 6.5 337 10.9 102620 45
2011-11-23 11:58 51°26.154 2°42.419 6.6 335 10.9 102620 46
2011-11-23 11:59 51°26.158 2°42.254 6.1 335 10.9 102620 46
2011-11-23 12:00 51°26.164 2°42.087 6.7 337 10.9 102620 45
2011-11-23 12:01 51°26.172 2°41.92 6.6 335 10.9 102620 46
2011-11-23 12:02 51°26.176 2°41.75 6.1 338 11 102620 46
2011-11-23 12:03 51°26.18 2°41.579 5.6 339 10.9 102630 45
2011-11-23 12:04 51°26.182 2°41.409 6.1 331 10.9 102620 45
2011-11-23 12:05 51°26.219 2°41.243 6.7 328 10.9 102630 45
2011-11-23 12:06 51°26.258 2°41.078 6.2 334 10.9 102630 45
2011-11-23 12:07 51°26.286 2°40.913 6.2 336 10.9 102630 45
2011-11-23 12:08 51°26.312 2°40.75 4.4 337 10.9 102630 44
2011-11-23 12:09 51°26.339 2°40.587 6.5 334 10.9 102630 46
2011-11-23 12:10 51°26.369 2°40.423 5.7 334 10.9 102630 44
2011-11-23 12:11 51°26.4 2°40.261 6.6 335 10.9 102630 45
2011-11-23 12:12 51°26.429 2°40.098 6 333 10.9 102630 44
2011-11-23 12:13 51°26.455 2°39.934 8.1 333 10.9 102640 44
2011-11-23 12:14 51°26.486 2°39.772 8 336 10.9 102640 44
2011-11-23 12:15 51°26.518 2°39.609 6.8 336 10.9 102640 45
2011-11-23 12:16 51°26.544 2°39.447 7 338 10.9 102630 44
2011-11-23 12:17 51°26.562 2°39.285 6.6 337 10.9 102630 45
2011-11-23 12:18 51°26.577 2°39.121 8.3 335 10.9 102640 45
2011-11-23 12:19 51°26.593 2°38.957 7.3 338 10.9 102640 44
2011-11-23 12:20 51°26.616 2°38.791 6.4 333 11 102640 46
2011-11-23 12:21 51°26.637 2°38.625 7.4 333 10.9 102640 45
2011-11-23 12:22 51°26.652 2°38.458 6.7 336 10.9 102650 44
2011-11-23 12:23 51°26.668 2°38.292 8.2 336 10.9 102640 45
2011-11-23 12:24 51°26.689 2°38.127 6.8 334 10.9 102630 43
2011-11-23 12:25 51°26.711 2°37.962 8.7 335 10.9 102640 44
2011-11-23 12:26 51°26.728 2°37.777 9 334 10.9 102640 45
2011-11-23 12:27 51°26.745 2°37.49 11.1 332 10.9 102620 45
2011-11-23 12:28 51°26.731 2°37.206 7.9 337 10.9 102630 45
2011-11-23 12:29 51°26.668 2°36.933 8.7 341 10.9 102620 45
2011-11-23 12:30 51°26.57 2°36.694 8.3 339 10.9 102620 45
2011-11-23 12:31 51°26.481 2°36.444 9.1 341 10.9 102610 45
2011-11-23 12:32 51°26.384 2°36.212 9.3 340 10.8 102620 43
2011-11-23 12:33 51°26.293 2°35.954 8.8 337 10.8 102620 45
2011-11-23 12:34 51°26.193 2°35.717 10.7 339 10.8 102620 44
2011-11-23 12:35 51°26.092 2°35.467 9.5 342 10.8 102620 45
2011-11-23 12:36 51°25.999 2°35.209 8.7 337 10.9 102630 45
2011-11-23 12:37 51°25.895 2°34.975 9.7 337 10.9 102620 45
2011-11-23 12:38 51°25.825 2°34.699 9.8 332 10.9 102630 44
2011-11-23 12:39 51°25.766 2°34.423 8.2 336 10.9 102630 44
2011-11-23 12:40 51°25.672 2°34.163 8.3 338 10.9 102630 44
2011-11-23 12:41 51°25.576 2°33.915 8.6 336 10.9 102620 45
2011-11-23 12:42 51°25.491 2°33.646 8.3 335 10.9 102630 44
2011-11-23 12:43 51°25.399 2°33.398 10 338 10.9 102630 45
2011-11-23 12:44 51°25.304 2°33.142 10.3 337 10.9 102630 45
2011-11-23 12:45 51°25.208 2°32.895 11.5 336 10.9 102630 45
2011-11-23 12:46 51°25.102 2°32.662 9.8 337 10.9 102640 44
2011-11-23 12:47 51°24.993 2°32.434 10.6 336 10.9 102640 44
2011-11-23 12:48 51°24.901 2°32.185 10.4 338 10.8 102640 45
2011-11-23 12:49 51°24.789 2°31.962 9.4 339 10.8 102640 44
2011-11-23 12:50 51°24.667 2°31.752 10.3 340 10.8 102640 43
2011-11-23 12:51 51°24.552 2°31.533 8.3 336 10.8 102640 44
2011-11-23 12:52 51°24.443 2°31.311 10.6 338 10.8 102650 45
2011-11-23 12:53 51°24.325 2°31.089 10.6 341 10.9 102650 45
2011-11-23 12:54 51°24.202 2°30.884 9.2 339 10.8 102650 44
2011-11-23 12:55 51°24.082 2°30.674 9.2 339 10.9 102640 45
2011-11-23 12:56 51°23.976 2°30.443 10.2 338 10.9 102640 44
2011-11-23 12:57 51°23.886 2°30.278 6.4 345 10.9 102650 44
2011-11-23 12:58 51°23.821 2°30.216 3.7 346 10.9 102660 44
2011-11-23 12:59 51°23.757 2°30.147 5.9 340 10.9 102670 45
2011-11-23 13:00 51°23.696 2°30.067 7.4 342 10.9 102670 44
2011-11-23 13:01 51°23.648 2°29.966 7.9 337 10.9 102670 44
2011-11-23 13:02 51°23.635 2°29.845 5.5 327 10.9 102670 44
2011-11-23 13:03 51°23.657 2°29.763 6.3 320 11 102680 45
2011-11-23 13:04 51°23.687 2°29.737 4.8 308 11 102670 44
2011-11-23 13:05 51°23.708 2°29.759 5.1 257 11 102680 45
2011-11-23 13:06 51°23.732 2°29.783 4.2 307 11 102690 43
2011-11-23 13:07 51°23.745 2°29.81 3.2 303 11.1 102700 45
2011-11-23 13:08 51°23.756 2°29.835 4.6 55 11.1 102700 46
2011-11-23 13:09 51°23.769 2°29.862 4.1 59 11 102700 45
2011-11-23 13:10 51°23.784 2°29.888 3.6 266 11 102710 45
2011-11-23 13:11 51°23.799 2°29.914 2.6 267 11 102700 45
2011-11-23 13:12 51°23.815 2°29.942 3.6 266 11 102710 45
2011-11-23 13:13 51°23.831 2°29.97 3.5 266 11 102710 45
2011-11-23 13:14 51°23.849 2°29.999 4 264 11 102710 45
2011-11-23 13:15 51°23.865 2°30.029 4 262 11 102710 45
2011-11-23 13:16 51°23.882 2°30.059 3.8 264 11 102710 46
2011-11-23 13:17 51°23.899 2°30.089 3.6 256 11.1 102700 47
2011-11-23 13:18 51°23.916 2°30.12 3.2 304 11.1 102700 46
2011-11-23 13:19 51°23.933 2°30.15 3.9 265 11.1 102700 47
2011-11-23 13:20 51°23.949 2°30.179 3.2 304 11.2 102700 46
2011-11-23 13:21 51°23.966 2°30.209 3.9 261 11.1 102700 45
2011-11-23 13:22 51°23.983 2°30.238 5.5 308 11.1 102700 45
2011-11-23 13:23 51°23.999 2°30.268 5 263 11.1 102700 46
2011-11-23 13:24 51°24.015 2°30.299 4.3 305 11.1 102700 45
2011-11-23 13:25 51°24.03 2°30.327 5.6 34 11 102700 45
2011-11-23 13:26 51°24.047 2°30.357 4.8 308 11 102700 45
2011-11-23 13:27 51°24.063 2°30.386 4.2 266 11 102700 45
2011-11-23 13:28 51°24.08 2°30.415 4.9 302 11 102700 45
2011-11-23 13:29 51°24.097 2°30.444 3.8 305 11 102700 45
2011-11-23 13:30 51°24.114 2°30.471 4.8 263 11 102700 45
2011-11-23 13:31 51°24.131 2°30.498 4.9 309 11 102700 46
2011-11-23 13:32 51°24.147 2°30.525 5.6 261 11 102700 45
2011-11-23 13:33 51°24.163 2°30.554 5.3 302 11 102700 46
2011-11-23 13:34 51°24.18 2°30.58 5.2 260 11 102700 46
2011-11-23 13:35 51°24.197 2°30.607 6.2 310 11 102700 46
2011-11-23 13:36 51°24.213 2°30.634 5.5 257 11 102700 43
2011-11-23 13:37 51°24.231 2°30.662 6.2 257 11 102710 43
2011-11-23 13:38 51°24.247 2°30.689 5.4 261 11.1 102700 44
2011-11-23 13:39 51°24.265 2°30.716 4.8 263 11.1 102700 44
2011-11-23 13:40 51°24.281 2°30.743 4.2 269 11.1 102710 45
2011-11-23 13:41 51°24.298 2°30.768 4.5 270 11.1 102700 45
2011-11-23 13:42 51°24.315 2°30.793 3.6 266 11.1 102700 44
2011-11-23 13:43 51°24.333 2°30.819 3.9 264 11.1 102700 43
2011-11-23 13:44 51°24.35 2°30.845 3.6 263 11.1 102700 42
2011-11-23 13:45 51°24.366 2°30.871 4.9 307 11.1 102700 43
2011-11-23 13:46 51°24.382 2°30.895 3.4 265 11.1 102700 42
2011-11-23 13:47 51°24.399 2°30.919 4.5 264 11.1 102700 44
2011-11-23 13:48 51°24.415 2°30.942 5.7 262 11.1 102700 44
2011-11-23 13:49 51°24.43 2°30.965 5.2 270 11.1 102700 44
2011-11-23 13:50 51°24.447 2°30.988 3.9 265 11.1 102700 44
2011-11-23 13:51 51°24.462 2°31.011 3.4 266 11.1 102690 44
2011-11-23 13:52 51°24.479 2°31.034 4.5 263 11 102690 41
2011-11-23 13:53 51°24.495 2°31.058 5 263 11 102690 43
2011-11-23 13:54 51°24.511 2°31.082 4.6 262 11.1 102690 43
2011-11-23 13:55 51°24.528 2°31.106 3.3 266 11.1 102690 40
2011-11-23 13:56 51°24.544 2°31.129 5.4 263 11.1 102690 42
2011-11-23 13:57 51°24.56 2°31.152 4.2 263 11.1 102690 43
2011-11-23 13:58 51°24.576 2°31.175 4.5 266 11.1 102690 42
2011-11-23 13:59 51°24.603 2°31.197 5.3 39 11.2 102690 43
2011-11-23 14:00 51°24.65 2°31.251 4 37 11.1 102700 40
2011-11-23 14:01 51°24.657 2°31.343 4.7 26 11.2 102710 39
2011-11-23 14:02 51°24.604 2°31.463 5 11 11.2 102700 42
2011-11-23 14:03 51°24.502 2°31.683 5.9 6 11.2 102700 42
2011-11-23 14:04 51°24.377 2°31.939 5.2 7 11.1 102700 40
2011-11-23 14:05 51°24.239 2°32.178 6.1 358 11.1 102700 42
2011-11-23 14:06 51°24.093 2°32.403 8 360 11.1 102690 42
2011-11-23 14:07 51°23.934 2°32.604 8.1 -999 11.1 102690 43
2011-11-23 14:08 51°23.785 2°32.822 8 358 11 102700 42
2011-11-23 14:09 51°23.623 2°33.02 7.4 -999 11 102690 43
2011-11-23 14:10 51°23.464 2°33.222 7.9 357 11 102690 43
2011-11-23 14:11 51°23.281 2°33.354 9.4 354 10.9 102690 44
2011-11-23 14:12 51°23.087 2°33.438 9.8 353 10.9 102690 45
2011-11-23 14:13 51°22.893 2°33.547 8.6 356 10.8 102690 45
2011-11-23 14:14 51°22.709 2°33.665 7.6 354 10.8 102690 45
2011-11-23 14:15 51°22.517 2°33.754 9.6 355 10.8 102690 46
2011-11-23 14:16 51°22.333 2°33.864 8.6 353 10.8 102690 44
2011-11-23 14:17 51°22.173 2°34.045 5.6 359 10.9 102690 46
2011-11-23 14:18 51°22.028 2°34.258 6.6 359 10.8 102700 45
2011-11-23 14:19 51°21.907 2°34.515 5.6 359 10.8 102690 47
2011-11-23 14:20 51°21.781 2°34.755 6.4 -999 10.8 102700 47
2011-11-23 14:21 51°21.645 2°34.994 4.4 359 10.8 102700 47
2011-11-23 14:22 51°21.522 2°35.237 5.6 1 10.8 102700 46
2011-11-23 14:23 51°21.391 2°35.48 6.7 359 10.8 102700 46
2011-11-23 14:24 51°21.256 2°35.722 6.4 360 10.8 102690 46
2011-11-23 14:25 51°21.132 2°35.965 6.7 356 10.8 102700 46
2011-11-23 14:26 51°20.99 2°36.199 6.4 358 10.8 102700 46
2011-11-23 14:27 51°20.866 2°36.438 6.3 1 10.8 102700 47
2011-11-23 14:28 51°20.732 2°36.677 4.9 2 10.8 102700 46
2011-11-23 14:29 51°20.607 2°36.913 5.7 2 10.8 102700 46
2011-11-23 14:30 51°20.469 2°37.147 6.3 360 10.8 102700 46
2011-11-23 14:31 51°20.337 2°37.375 5.8 359 10.8 102710 47
2011-11-23 14:32 51°20.196 2°37.601 6.5 356 10.8 102710 45
2011-11-23 14:33 51°20.059 2°37.836 7.4 360 10.8 102710 47
2011-11-23 14:34 51°19.927 2°38.064 4.2 5 10.8 102710 47
2011-11-23 14:35 51°19.79 2°38.301 7.3 360 10.8 102710 48
2011-11-23 14:36 51°19.659 2°38.533 5.2 6 10.8 102710 46
2011-11-23 14:37 51°19.519 2°38.767 6.1 4 10.8 102710 46
2011-11-23 14:38 51°19.389 2°39.002 5.5 4 10.8 102710 46
2011-11-23 14:39 51°19.25 2°39.24 6.3 2 10.9 102710 48
2011-11-23 14:40 51°19.114 2°39.477 6 6 10.8 102710 45
2011-11-23 14:41 51°18.985 2°39.72 5.1 3 10.8 102710 46
2011-11-23 14:42 51°18.85 2°39.952 5.3 358 10.8 102720 45
2011-11-23 14:43 51°18.716 2°40.183 6.4 1 10.8 102720 47
2011-11-23 14:44 51°18.577 2°40.42 4.9 4 10.8 102720 46
2011-11-23 14:45 51°18.453 2°40.654 6.4 6 10.8 102720 47
2011-11-23 14:46 51°18.32 2°40.891 6 4 10.8 102720 47
2011-11-23 14:47 51°18.191 2°41.123 5.7 359 10.8 102720 46
2011-11-23 14:48 51°18.063 2°41.367 6 358 10.8 102720 47
2011-11-23 14:49 51°17.936 2°41.612 5.7 359 10.8 102720 47
2011-11-23 14:50 51°17.801 2°41.85 5.8 359 10.8 102720 47
2011-11-23 14:51 51°17.675 2°42.105 5.4 1 10.8 102730 47
2011-11-23 14:52 51°17.554 2°42.355 5.5 1 10.8 102730 47
2011-11-23 14:53 51°17.426 2°42.598 5.1 4 10.8 102730 48
2011-11-23 14:54 51°17.292 2°42.815 5.1 6 10.8 102730 47
2011-11-23 14:55 51°17.169 2°43.04 4.1 6 10.8 102740 48
2011-11-23 14:56 51°17.063 2°43.3 4.1 3 10.8 102740 48
2011-11-23 14:57 51°16.941 2°43.537 4.6 4 10.8 102750 47
2011-11-23 14:58 51°16.817 2°43.789 4.6 7 10.8 102750 47
2011-11-23 14:59 51°16.722 2°44.057 3.4 5 10.7 102750 47
2011-11-23 15:00 51°16.635 2°44.343 4.1 7 10.8 102750 48
2011-11-23 15:01 51°16.549 2°44.616 4.6 7 10.7 102750 48
2011-11-23 15:02 51°16.462 2°44.894 4.2 8 10.7 102760 46
2011-11-23 15:03 51°16.366 2°45.157 3.1 12 10.7 102760 47
2011-11-23 15:04 51°16.291 2°45.446 2.1 14 10.8 102760 49
2011-11-23 15:05 51°16.251 2°45.745 1.6 18 10.7 102760 48
2011-11-23 15:06 51°16.208 2°46.037 0.2 7 10.7 102760 48
2011-11-23 15:07 51°16.158 2°46.337 2.1 9 10.7 102760 48
2011-11-23 15:08 51°16.086 2°46.616 2.4 10 10.7 102760 48
2011-11-23 15:09 51°16.018 2°46.908 2.9 11 10.7 102760 48
2011-11-23 15:10 51°15.943 2°47.185 3.1 10 10.7 102760 48
2011-11-23 15:11 51°15.863 2°47.466 3.1 1 10.7 102760 49
2011-11-23 15:12 51°15.795 2°47.753 2 2 10.7 102760 48
2011-11-23 15:13 51°15.751 2°48.048 0.4 10 10.7 102770 49
2011-11-23 15:14 51°15.685 2°48.333 2.9 14 10.7 102770 49
2011-11-23 15:15 51°15.617 2°48.616 2.9 11 10.7 102770 49
2011-11-23 15:16 51°15.552 2°48.9 2.3 2 10.7 102780 49
2011-11-23 15:17 51°15.495 2°49.191 2.4 5 10.7 102770 48
2011-11-23 15:18 51°15.438 2°49.484 3.5 10 10.7 102770 48
2011-11-23 15:19 51°15.379 2°49.775 1.9 15 10.7 102780 47
2011-11-23 15:20 51°15.336 2°50.071 2 6 10.7 102770 48
2011-11-23 15:21 51°15.288 2°50.365 0.1 9 10.7 102770 49
2011-11-23 15:22 51°15.26 2°50.663 1.9 353 10.7 102770 48
2011-11-23 15:23 51°15.225 2°50.959 1.7 359 10.7 102780 48
2011-11-23 15:24 51°15.177 2°51.253 -999 4 10.7 102770 49
2011-11-23 15:25 51°15.127 2°51.55 2.3 5 10.7 102780 49
2011-11-23 15:26 51°15.063 2°51.831 2.3 3 10.7 102780 49
2011-11-23 15:27 51°15.008 2°52.12 1.3 356 10.7 102780 48
2011-11-23 15:28 51°14.974 2°52.416 1.2 1 10.7 102790 49
2011-11-23 15:29 51°14.945 2°52.719 1.2 5 10.7 102790 48
2011-11-23 15:30 51°14.908 2°53.011 1.1 2 10.7 102790 48
2011-11-23 15:31 51°14.866 2°53.307 0.2 357 10.6 102790 48
2011-11-23 15:32 51°14.813 2°53.6 2 356 10.6 102790 49
2011-11-23 15:33 51°14.769 2°53.9 2.1 353 10.6 102790 49
2011-11-23 15:34 51°14.72 2°54.194 3 353 10.5 102790 50
2011-11-23 15:35 51°14.668 2°54.48 3.5 353 10.4 102790 50
2011-11-23 15:36 51°14.613 2°54.77 3.9 349 10.4 102800 50
2011-11-23 15:37 51°14.511 2°55.024 5.4 349 10.4 102800 51
2011-11-23 15:38 51°14.371 2°55.197 5.1 347 10.3 102790 50
2011-11-23 15:39 51°14.261 2°55.314 3.8 352 10.2 102800 51
2011-11-23 15:40 51°14.156 2°55.403 3.3 346 10.1 102800 52
2011-11-23 15:41 51°14.052 2°55.479 4.3 342 10.2 102800 50
2011-11-23 15:42 51°13.956 2°55.546 3.1 339 10.3 102800 50
2011-11-23 15:43 51°13.86 2°55.612 2.7 345 10.4 102800 49
2011-11-23 15:44 51°13.771 2°55.693 3.8 343 10.4 102800 49
2011-11-23 15:45 51°13.71 2°55.796 -999 348 10.4 102800 48
2011-11-23 15:46 51°13.667 2°55.889 -999 5 10.4 102810 48
2011-11-23 15:47 51°13.644 2°55.971 -999 7 10.4 102810 49
2011-11-23 15:48 51°13.636 2°56.016 -999 44 10.4 102810 48